Home > Time Zones > World Clock > Weather > India > Theni > Past weeks

Flag for India Weather past 2 weeks in Theni, Tamil Nadu, India

Now
75 °F

Haze.


Feels Like: 77 °F
Forecast: 62 / 89 °F
Wind: 7 mph from East

Location: Coimbatore / Peelamedu

Current Time: Jan 26, 2015 at 12:04:38 AM

Latest Report: Jan 25, 2015 at 11:30 PM


Visibility: 3 mi

Pressure: 30.07 "Hg

Humidity: 61%

Dew point: 61 °F

Location of TheniLocation

Historic Weather in Theni — Graph

°F

Theni temperature yesterday

Maximum temperature yesterday: 90 °F (at 3:30 PM)
Minimum temperature yesterday: 72 °F (at 2:30 AM)
Average temperature yesterday: 80 °F

Past Weeks' High & Low Weather Summary

 TemperatureHumidityPressure
High90 °F (Jan 25, 3:30 PM)94% (Jan 14, 7:30 AM)30.15 "Hg (Jan 14, 7:30 AM)
Low63 °F (Jan 12, 7:00 AM)17% (Jan 11, 3:00 PM)29.89 "Hg (Jan 13, 3:30 PM)
Average78 °F56%30.01 "Hg
* Reported Jan 10 11:30 PM — Jan 25 10:30 PM, Theni, Weather by CustomWeather, © 2014

Note: Actual official high and low records may vary slightly from our data, if they occured in-between our weather recording intervals... More about our weather records

Advertising

Theni weather history for previous 24 hours

 ConditionsComfort  
Time TempWeatherWind HumidityBarometerVisibility
10:30 PM
Jan 25
79 °FHaze.12 mph45%30.07 "Hg3 mi
10:00 PM79 °FHaze.14 mph45%30.04 "Hg3 mi
9:30 PM79 °FHaze.14 mph51%30.04 "Hg3 mi
9:00 PM79 °FHaze.12 mph51%30.04 "Hg3 mi
8:30 PM79 °FHaze.6 mph51%30.01 "Hg3 mi
8:00 PM79 °FHaze.6 mph58%30.01 "Hg3 mi
7:00 PM82 °FPassing clouds.6 mph48%29.98 "Hg4 mi
6:30 PM82 °FPassing clouds.5 mph45%29.98 "Hg4 mi
6:00 PM84 °FPassing clouds.8 mph40%29.98 "Hg4 mi
5:30 PM86 °FPassing clouds.9 mph38%29.95 "Hg4 mi
5:00 PM86 °FPassing clouds.9 mph40%29.95 "Hg5 mi
4:30 PM88 °FPassing clouds.13 mph38%29.95 "Hg4 mi
4:00 PM90 °FScattered clouds.12 mph36%29.95 "Hg4 mi
3:30 PM90 °FScattered clouds.9 mph36%29.95 "Hg4 mi
3:00 PM88 °FScattered clouds.8 mph38%29.95 "Hg4 mi
2:30 PM88 °FScattered clouds.7 mph38%29.98 "Hg4 mi
2:00 PM88 °FScattered clouds.9 mph40%30.01 "Hg4 mi
1:30 PM86 °FScattered clouds.10 mph43%30.01 "Hg4 mi
1:00 PM86 °FPassing clouds.9 mph46%30.04 "Hg4 mi
12:30 PM86 °FPassing clouds.7 mph46%30.07 "Hg4 mi
12:00 PM84 °FPassing clouds.10 mph48%30.07 "Hg4 mi
11:30 AM82 °FPassing clouds.10 mph55%30.09 "Hg4 mi
11:00 AM81 °FPassing clouds.5 mph58%30.09 "Hg4 mi
10:30 AM81 °FHaze.7 mph62%30.09 "Hg3 mi
10:00 AM79 °FScattered clouds.5 mph65%30.12 "Hg3 mi
9:30 AM77 °FHaze.6 mph69%30.09 "Hg3 mi
8:30 AM73 °FFog.7 mph83%30.09 "Hg2 mi
8:00 AM73 °FFog.7 mph83%30.09 "Hg2 mi
7:30 AM72 °FFog.6 mph88%30.07 "Hg2 mi
6:30 AM72 °FFog.6 mph83%30.04 "Hg2 mi
6:00 AM72 °FHaze.3 mph83%30.04 "Hg2 mi
5:30 AM72 °FHaze.3 mph83%30.01 "Hg2 mi
4:30 AM72 °FHaze.5 mph88%30.01 "Hg2 mi
3:30 AM72 °FHaze.5 mph83%30.01 "Hg2 mi
3:00 AM72 °FHaze.6 mph83%30.01 "Hg2 mi
2:30 AM72 °FHaze.6 mph83%30.01 "Hg2 mi
Weather by CustomWeather, © 2014

See weather overviewHow to use our weather pages